Starlink 35719

operational
NORAD ID: 67183 Int'l Des: 2025-303 Owner: SPXS Country: US Constellation: starlink
LEOCIRCULAR

关于 Starlink 35719

正在加载描述...

实时位置

正在加载3D地球...

即将过境

高度历史

Altitude vs Time

uPlot chart will show altitude changes over time

两行轨道根数

1 67183C 25303W 25352.76854167 .00690960 00000+0 10125-2 0 3522
2 67183 43.0051 61.7769 0007434 284.3490 270.6765 16.03352894 19
Epoch: Dec 18, 2025 • Age: 45 hours

当前状态

高度 263.1 km
速度 7.75 km/s
星下点 -10.67°S, 162.63°W
发射日期 Dec 17, 2025
运行时间 2 days
类型 internet

技术详情

分类 Payload
质量 575.00 kg
干质量 530.00 kg
总质量 575.00 kg
长度 0.30 m
直径 4.10 m
跨度 29.00 m
形状 Box + pan
制造商 SPXS
平台类型 Starlink V2MO
阶段状态 In Orbit
所有者/国家 SPXS/US

大型星座

Loading constellations...